CAPE
0 0 0 0 0 0 0 0 0 0 3 15 29 38 25 142 207 119 91 54 421 447 854 1816 1753 1865 1816 1783 1682 1695 1754 1682 1592 1467 1321 1228 1042 900 668 325 375 498 415 60 36 26 18 10 11
0 0 0 0 0 0 0 0 0 0 0 17 84 162 378 468 195 190 218 168 443 408 519 1683 1660 1740 1776 1712 1684 1747 1796 1733 1576 1545 1411 1324 1001 858 566 371 334 521 519 93 60 34 9 2 15
0 0 0 0 0 0 0 0 0 0 15 24 6 48 120 753 262 314 231 173 382 387 365 1203 1478 1365 1373 1415 1634 1654 1616 1512 1493 1450 1527 1236 966 802 544 311 316 517 493 31 5 0 0 0 0
0 0 0 0 0 0 0 0 0 0 2 41 38 45 1 73 21 51 84 484 258 304 196 875 980 882 827 952 1363 1548 1494 1302 1345 1382 1501 1196 929 704 462 299 251 465 381 2 0 0 0 0 0
0 0 0 0 0 0 0 0 0 0 20 140 56 39 10 33 0 541 953 660 30 14 32 94 817 456 812 1100 1497 1335 1247 1173 1286 1361 1327 1027 827 665 455 250 187 213 56 0 0 0 7 0 0
0 0 0 0 0 0 0 0 12 50 85 97 26 87 69 0 28 572 583 408 123 133 47 138 315 537 698 1137 1001 958 913 1015 1193 1262 1181 822 683 541 420 259 154 28 0 0 0 0 0 0 0
0 0 0 0 0 0 0 0 21 59 78 54 87 100 4 18 254 592 399 182 429 273 39 10 23 11 40 323 341 479 583 877 1098 1108 837 543 435 398 360 203 70 0 0 0 0 0 0 0 0
0 0 0 0 0 0 0 0 0 32 39 31 3 0 0 34 426 261 267 103 138 99 9 1 16 1 3 0 188 178 359 682 858 847 572 300 279 281 195 16 0 0 0 0 0 0 0 1 0
0 0 0 0 0 0 0 0 0 0 32 8 4 0 0 527 277 203 199 112 86 75 47 38 1 0 0 0 2 89 362 521 519 556 330 150 129 36 0 0 0 0 0 0 0 0 1 8 0
0 0 0 0 0 0 0 0 0 1 9 0 0 0 4 528 294 156 162 88 74 41 14 2 1 0 2 2 11 4 120 410 410 344 215 78 26 0 0 0 0 0 0 0 0 0 0 0 0
0 0 0 0 0 0 0 0 0 0 0 0 0 0 536 187 117 44 87 35 13 2 4 3 2 0 1 0 0 5 30 45 187 125 59 2 2 0 0 0 0 0 0 0 0 0 0 0 0
0 0 0 0 0 0 0 3 240 6 97 11 0 129 358 66 40 17 3 3 1 2 2 4 6 4 1 2 0 1 0 0 33 45 20 8 0 0 0 0 0 0 0 0 0 0 0 0 0
0 0 0 0 0 0 0 0 81 110 229 502 721 591 209 3 17 0 2 1 5 1 2 6 6 2 0 0 0 0 0 0 9 54 11 19 8 0 0 0 0 0 0 0 0 0 0 0 0
0 0 0 0 0 0 0 9 0 0 209 0 9 16 50 0 0 2 2 3 3 3 2 1 7 4 0 0 4 6 21 43 82 31 22 6 1 0 0 0 0 0 0 0 0 0 0 0 0
0 0 0 0 0 0 0 0 0 0 83 21 13 36 0 0 0 1 1 1 3 3 2 0 1 6 3 0 0 3 0 0 0 8 0 0 0 0 0 0 0 0 0 0 0 0 0 0 0
0 0 0 0 0 0 0 0 0 0 5 0 88 33 0 0 0 8 1 1 3 4 4 3 2 1 0 0 0 0 0 12 2 0 1 11 1 0 0 0 0 0 0 0 0 0 0 0 0
0 0 0 0 0 0 0 0 0 0 0 0 116 7 0 0 0 7 3 2 2 3 5 6 3 1 0 0 0 0 0 4 20 24 14 6 0 0 0 0 0 0 0 0 0 0 0 0 0
0 0 0 0 0 0 0 0 0 0 0 17 6 0 0 0 0 7 4 2 4 3 2 3 2 0 0 0 0 0 0 0 0 5 17 3 1 5 0 0 0 0 0 0 0 0 0 0 0
0 0 0 0 0 0 0 0 0 0 0 0 0 0 0 0 0 1 3 4 1 1 0 1 0 0 0 0 0 0 5 0 0 0 2 20 16 22 8 0 0 0 0 0 0 0 0 0 0
0 0 0 0 0 0 0 0 0 0 0 0 0 0 0 0 0 3 0 4 7 3 0 0 0 0 0 0 0 0 0 0 0 0 0 0 9 35 4 0 0 0 0 0 0 0 0 0 0
0 0 0 0 0 0 0 0 0 0 0 0 0 0 0 0 0 0 1 0 0 0 0 0 0 0 0 0 0 0 0 0 0 0 0 0 0 6 0 0 0 0 0 0 0 0 0 0 0
0 0 0 0 0 0 0 0 0 0 0 0 0 0 0 0 0 0 0 0 0 0 1 0 0 0 0 0 0 0 0 0 0 0 0 0 0 0 0 0 0 0 0 0 0 0 0 0 0
0 0 0 0 0 0 0 0 0 0 0 0 0 0 0 0 0 0 0 0 0 0 0 0 0 0 0 0 0 0 0 0 0 0 0 0 0 0 0 5 0 0 0 0 0 0 0 0 0
0 0 0 0 0 0 0 0 0 0 0 0 0 0 0 0 0 0 0 0 0 0 0 0 0 0 0 0 0 0 0 0 0 0 0 0 0 0 0 4 11 6 0 0 0 0 0 0 0
0 0 0 0 0 0 0 0 0 0 0 0 3 0 0 0 0 0 0 0 0 0 0 0 0 0 0 0 0 0 0 0 0 0 0 0 0 0 20 15 14 2 0 0 0 0 0 0 0
0 0 0 0 0 0 0 0 0 0 0 0 1 0 0 0 0 0 0 0 0 0 0 0 0 0 0 0 0 0 0 0 0 0 0 0 0 0 1 19 44 18 0 0 0 0 0 0 0
0 0 0 0 0 0 0 0 0 0 0 0 0 0 0 0 0 0 0 0 0 0 0 0 0 0 0 0 0 0 0 0 0 0 0 0 0 0 0 6 14 0 0 0 0 0 0 0 0
0 0 0 0 0 0 0 0 0 0 0 0 0 0 0 0 0 0 0 0 0 0 0 0 0 0 0 0 0 0 0 0 0 0 0 0 0 0 0 0 0 0 0 0 0 0 1 0 0
0 0 0 0 0 0 0 0 0 0 0 0 0 0 0 0 0 0 0 0 0 0 0 0 0 0 0 0 0 0 0 3 17 6 0 0 0 0 0 0 0 0 0 0 0 1 2 0 0
0 0 0 0 0 0 0 0 0 0 0 0 0 0 0 2 0 0 0 0 0 0 0 0 0 0 0 0 0 0 0 0 2 0 0 0 0 0 0 0 0 0 0 0 0 0 0 0 0
CIN
0 0 0 0 0 0 0 0 0 0 -73 -189 -245 -240 -126 -348 -215 -150 -639 -738 -424 -380 -160 0 -19 -48 -28 -8 -4 0 -3 -26 -35 -5 0 0 0 -1 -1 -39 -7 0 0 -90 -145 -9 0 0 0
0 0 0 0 0 0 0 0 0 0 0 -301 -251 -226 -180 -197 -431 -416 -427 -644 -421 -431 -376 -10 -59 -84 -107 -90 -26 -1 -9 -1 -10 -7 0 0 0 0 -3 -22 -8 0 0 -65 -84 -48 0 0 0
0 0 0 0 0 0 0 0 0 0 -247 -292 -265 -394 -327 -187 -332 -340 -398 -476 -353 -405 -374 -74 -60 -100 -142 -145 -26 -2 -8 -8 -1 0 0 0 0 0 -2 -27 -14 0 0 -112 0 0 0 0 0
0 0 0 0 0 0 0 0 0 0 -124 -301 -297 -266 -215 -426 -421 -447 -481 -212 -350 -369 -432 -96 -65 -122 -211 -209 -41 0 0 -6 -16 -3 0 0 -1 0 -18 -53 -28 0 0 0 0 0 0 0 0
0 0 0 0 0 0 0 0 0 0 -197 -232 -330 -227 -331 -418 -16 -195 -80 -106 -354 -419 -425 -256 -34 -71 -122 -94 -1 -1 -5 -5 -6 -12 0 0 0 0 -2 -26 -24 -19 -83 0 0 0 -82 0 0
0 0 0 0 0 0 0 0 -157 -154 -193 -243 -276 -272 -307 0 -308 -100 -105 -149 -169 -165 -248 -168 -82 -36 -19 -8 -1 -2 -1 -4 -15 -2 -1 -1 0 0 -11 -41 -55 -128 -127 0 0 0 0 0 0
0 0 0 0 0 0 0 0 -136 -166 -222 -204 -319 -189 -140 -365 -192 -78 -98 -194 -25 -63 -160 -226 -156 -39 -16 -9 -4 -6 -1 -4 -8 -3 -3 -2 -2 -9 -36 -59 -60 -8 0 0 0 0 0 0 0
0 0 0 0 0 0 0 0 0 -211 -185 -378 -398 0 0 -342 -122 -134 -122 -168 -121 -127 -159 -195 -46 -9 -151 0 -1 -2 -2 -2 -38 -8 -4 -12 -14 -35 -48 -93 0 0 0 0 0 0 -19 -191 0
0 0 0 0 0 0 0 0 0 0 -318 -266 -231 0 0 -136 -145 -143 -135 -123 -72 -41 -49 -48 0 0 0 0 -33 -3 -1 -1 -17 -10 -17 -20 -19 -68 0 0 0 0 0 0 0 0 -31 -264 0
0 0 0 0 0 0 0 0 0 -58 -319 0 0 0 -129 -135 -162 -186 -133 -90 -59 -88 -93 0 0 0 0 0 -1 -39 -4 -3 -1 -8 -12 -22 -35 0 0 0 0 0 0 0 0 0 0 0 0
0 0 0 0 0 0 0 0 0 0 0 0 0 0 -123 -199 -189 -255 -188 -170 -118 0 -1 0 0 0 0 0 0 -2 -25 -27 -16 -44 -47 -20 -49 0 0 0 0 0 0 0 0 0 0 0 0
0 0 0 0 0 0 0 -20 -184 -37 -172 -320 0 -248 -47 -122 -183 -227 0 -53 -6 0 0 0 0 0 0 0 0 -44 -11 0 -64 -143 -148 -154 0 0 0 0 0 0 0 0 0 0 0 0 0
0 0 0 0 0 0 0 0 -156 -254 -339 -251 -152 -93 -53 -60 -135 0 0 0 0 0 0 0 0 0 0 -1 0 0 0 0 -121 -153 -193 -246 -301 0 0 0 0 0 0 0 0 0 0 0 0
0 0 0 0 0 0 0 -231 0 0 -327 0 -323 -180 -170 -6 0 0 0 0 0 0 0 0 0 0 -1 0 -2 -3 -22 -84 -132 -187 -241 -322 -142 0 0 0 0 0 0 0 0 0 0 0 0
0 0 0 0 0 0 0 0 0 0 -355 -309 -308 -225 0 0 0 -8 0 0 0 0 0 0 0 -1 -3 0 0 -3 0 0 0 -114 0 0 0 0 0 0 0 0 0 0 0 0 0 0 0
0 0 0 0 0 0 0 0 0 0 -178 0 -340 -289 0 0 0 -1 0 0 0 0 0 0 0 0 0 0 0 0 0 -56 -44 0 -48 -299 -147 0 0 0 0 0 0 0 0 0 0 0 0
0 0 0 0 0 0 0 0 0 0 0 0 -335 -267 0 0 0 0 0 0 0 0 0 0 0 0 0 0 0 0 0 -47 -115 -162 -213 -275 0 0 0 0 0 0 0 0 0 0 0 0 0
0 0 0 0 0 0 0 0 0 0 0 -271 -97 0 0 0 0 0 0 0 0 0 0 0 0 0 0 0 0 0 0 0 0 -43 -185 -186 -101 -187 0 0 0 0 0 0 0 0 0 0 0
0 0 0 0 0 0 0 0 0 0 0 0 0 0 0 0 0 0 -1 -1 0 0 0 0 0 0 0 0 0 0 -56 0 0 0 -199 -202 -177 -222 -257 0 0 0 0 0 0 0 0 0 0
0 0 0 0 0 0 0 0 0 0 0 0 0 0 0 0 0 0 0 0 0 0 0 0 0 0 0 0 0 0 0 0 0 0 0 0 -219 -223 -204 0 0 0 0 0 0 0 0 0 0
0 0 0 0 0 0 0 0 0 0 0 0 0 0 0 0 0 0 0 0 -1 0 0 0 0 0 0 0 0 0 0 0 0 0 0 0 0 -159 0 0 0 0 0 0 0 0 0 0 0
0 0 0 0 0 0 0 0 0 0 0 0 0 0 0 0 0 0 0 0 0 0 -1 0 0 0 0 0 0 0 0 0 0 0 0 0 0 0 0 0 0 0 0 0 0 0 0 0 0
0 0 0 0 0 0 0 0 0 0 0 0 0 0 0 0 0 0 0 0 0 0 0 0 0 0 0 0 0 0 0 0 0 0 0 0 0 0 0 -219 0 0 0 0 0 0 0 0 0
0 0 0 0 0 0 0 0 0 0 0 0 0 0 0 0 0 0 0 0 0 0 0 0 0 0 0 0 0 0 0 0 0 0 0 0 0 0 0 -253 -262 -284 0 0 0 0 0 0 0
0 0 0 0 0 0 0 0 0 0 0 0 -247 0 0 0 0 0 0 0 0 0 0 0 0 0 0 0 0 0 0 0 0 0 0 0 0 0 -267 -263 -235 -160 -136 0 0 0 0 0 0
0 0 0 0 0 0 0 0 0 0 0 0 -71 0 -163 0 0 0 0 0 0 0 0 0 0 0 0 0 0 0 0 0 0 0 0 0 0 0 -37 -279 -205 -204 0 0 0 0 0 0 0
0 0 0 0 0 0 0 0 0 0 0 0 0 0 0 0 0 0 0 0 0 0 0 0 0 0 0 0 0 0 0 0 0 0 0 0 0 0 0 -233 -182 0 0 0 0 0 0 0 0
0 0 0 0 0 0 0 0 0 0 0 0 0 0 0 0 0 0 0 0 0 0 0 0 0 0 0 0 0 0 0 0 0 0 0 0 0 0 0 0 0 0 0 0 0 0 0 0 0
0 0 0 0 0 0 0 0 0 0 0 0 0 0 0 0 0 0 0 0 0 0 0 0 0 0 0 0 0 0 0 -331 -293 -203 0 0 0 0 0 0 0 0 0 0 0 0 0 0 0
0 0 0 0 0 0 0 0 0 0 0 0 0 0 0 -376 0 0 0 0 0 0 0 0 0 0 0 0 0 0 0 0 -128 0 0 0 0 0 0 0 0 0 0 0 0 0 0 0 0
Wind_Speed
2 0 1 5 6 6 3 6 3 6 3 1 3 3 3 4 2 3 3 5 2 5 3 12 16 20 21 22 22 17 20 25 28 24 24 24 24 25 24 25 26 26 26 27 26 25 24 23 18
3 2 5 3 6 4 6 5 5 5 4 10 5 4 3 1 3 5 4 10 9 4 2 8 16 21 22 23 20 16 22 24 25 26 25 25 25 25 25 25 24 26 26 27 25 23 20 17 20
3 2 5 5 3 3 5 6 6 3 1 1 3 2 3 4 2 3 6 3 8 7 5 7 14 18 23 22 16 19 20 23 24 25 23 24 24 24 25 25 24 24 24 25 24 22 21 21 22
3 5 5 5 4 9 8 12 8 2 2 2 2 4 3 3 2 3 10 6 6 6 6 6 11 11 23 27 24 19 15 22 25 24 22 22 24 24 24 24 24 24 23 24 22 20 19 22 21
5 3 5 2 6 6 6 8 4 4 2 4 3 4 1 2 5 5 7 8 9 4 6 3 11 10 12 22 24 26 24 21 22 26 21 22 23 23 23 22 23 23 22 22 22 21 24 23 21
5 4 5 2 6 6 8 5 4 3 2 3 4 1 2 1 3 5 5 3 3 4 3 5 2 14 17 20 23 22 21 24 25 24 21 21 22 22 22 22 21 21 21 21 20 21 22 22 21
7 4 4 4 6 7 6 4 4 5 4 5 2 2 3 4 3 2 6 9 3 9 9 7 4 2 7 8 18 19 20 23 23 25 21 19 19 20 21 21 19 19 20 22 20 20 20 21 20
6 5 1 5 1 8 6 1 1 4 5 1 2 5 2 1 3 4 8 7 4 9 8 6 5 4 2 5 17 24 20 17 27 24 21 17 17 20 20 19 18 17 19 21 19 18 18 20 19
4 4 3 6 3 7 11 5 1 2 3 3 3 2 3 5 7 4 7 6 4 4 9 8 7 4 3 16 23 20 28 11 24 21 19 14 9 12 14 15 17 15 16 18 19 18 20 21 19
5 4 7 7 5 10 12 2 6 5 5 5 4 4 5 6 3 6 6 6 6 3 8 9 9 6 2 14 25 20 14 12 12 15 14 8 8 9 10 13 16 14 16 18 16 17 17 13 6
5 6 6 10 8 11 8 2 5 6 4 9 7 9 9 5 4 6 5 3 4 5 8 9 10 8 6 12 14 9 6 4 6 11 9 7 5 7 7 7 6 6 10 6 7 8 5 7 5
1 7 4 8 6 2 4 3 3 4 7 5 8 4 4 4 4 6 7 5 5 5 9 10 10 10 9 10 11 12 3 6 7 8 10 7 4 3 4 5 4 6 4 7 5 4 6 6 7
6 5 4 9 11 7 3 6 7 6 7 3 4 5 6 5 3 3 8 6 6 5 6 9 10 12 12 14 11 10 7 7 7 8 8 7 7 6 4 4 5 5 5 5 6 5 5 6 6
3 5 8 7 10 5 5 5 3 9 5 3 2 5 5 6 5 4 7 5 6 6 6 7 12 11 12 11 15 12 8 9 9 7 8 8 7 7 6 5 4 4 5 5 6 5 5 5 5
3 7 8 7 5 5 6 1 11 1 6 6 3 3 4 5 4 3 7 6 6 7 6 8 7 10 10 12 12 8 8 7 7 8 8 10 6 7 7 5 4 4 4 7 6 4 4 4 4
5 1 3 4 4 5 4 13 8 7 8 7 4 5 4 2 7 6 7 7 5 8 7 7 7 8 8 6 7 4 8 7 7 7 7 10 8 7 6 5 4 5 4 5 5 5 4 3 4
3 4 5 10 4 3 3 9 6 7 6 6 6 6 4 4 6 7 8 7 7 7 9 7 8 8 6 6 4 4 5 6 6 6 7 9 8 6 7 5 5 6 5 4 5 2 4 3 2
5 4 3 5 4 2 5 16 5 5 5 7 6 5 5 5 4 6 9 7 8 7 8 8 7 8 6 5 3 3 4 3 4 4 7 9 7 7 6 4 4 4 4 4 3 4 2 3 4
3 2 4 14 13 3 11 16 9 8 6 8 9 7 7 5 6 7 8 8 7 8 9 10 11 9 7 3 2 3 8 3 2 2 4 7 7 7 6 4 5 5 6 7 6 4 4 2 3
5 5 12 11 9 4 9 12 7 9 10 12 11 11 11 4 4 7 8 9 8 9 9 10 11 11 10 8 5 3 5 2 2 2 3 3 5 6 5 6 6 6 4 5 6 5 3 3 5
8 7 11 7 11 5 4 7 5 6 3 5 7 7 8 13 14 14 13 12 10 10 9 9 11 12 12 12 3 2 2 1 1 2 1 3 3 6 7 7 6 6 5 6 7 6 7 5 4
11 10 10 10 6 4 1 6 6 6 11 8 12 10 11 11 10 11 17 16 16 14 12 9 10 13 10 9 6 6 10 10 4 2 3 5 7 7 8 7 7 7 6 6 7 6 4 4 5
11 7 9 9 11 2 2 2 7 2 6 12 14 15 14 15 14 15 14 15 15 14 14 11 11 10 10 9 8 7 7 5 2 3 5 4 5 7 7 8 8 8 7 7 9 6 7 4 4
8 2 1 3 2 3 4 5 8 6 9 8 11 14 14 15 15 12 9 8 9 8 9 9 11 11 12 12 12 12 12 10 6 5 6 7 4 4 6 7 9 9 8 9 9 9 8 8 4
5 3 3 4 1 8 5 4 11 7 7 9 16 17 15 13 14 13 13 13 12 13 13 12 15 16 15 15 14 14 13 12 12 11 8 9 7 7 9 8 9 9 10 9 8 9 9 8 8
8 10 7 6 4 6 0 6 8 7 8 10 14 15 11 12 13 15 17 14 14 15 15 15 17 16 16 16 16 14 14 10 10 11 9 9 9 9 8 11 12 12 9 8 8 7 6 7 7
5 6 11 5 1 3 5 7 10 6 4 5 9 8 13 14 15 18 16 16 14 15 18 18 17 17 16 16 14 15 14 16 13 14 10 9 9 7 8 11 12 7 7 8 7 6 7 8 7
12 6 3 2 8 6 4 4 6 7 6 5 6 12 13 13 13 13 14 16 16 16 16 16 17 17 15 13 13 14 15 16 16 13 13 9 6 5 4 1 3 4 5 6 7 6 6 8 6
5 6 3 6 6 7 2 7 9 10 9 7 9 11 14 15 16 16 16 16 16 13 14 14 16 17 14 14 15 16 16 16 14 14 11 9 9 11 10 8 8 9 9 9 9 9 8 8 7
10 12 10 6 4 3 5 10 4 8 7 8 10 11 12 15 17 17 17 16 15 18 15 18 17 18 17 16 21 18 13 11 12 13 12 13 11 11 11 9 9 6 7 9 9 10 9 9 9
Wind_Direction
173 98 74 46 50 61 287 268 252 288 244 259 317 332 37 39 24 213 239 241 170 138 83 141 135 124 121 119 124 132 134 126 138 134 135 131 131 129 127 124 123 120 119 117 116 114 113 113 101
145 132 40 84 81 35 279 267 254 233 332 335 355 338 5 143 227 267 326 164 153 166 198 178 156 146 134 130 130 138 134 138 134 137 139 137 136 132 131 126 125 124 122 122 118 113 112 113 112
149 57 81 84 102 185 234 223 251 256 211 317 287 66 214 213 231 248 264 147 152 188 215 194 166 150 137 121 125 137 142 141 137 135 138 137 136 135 129 126 125 123 122 120 115 113 115 114 111
128 15 41 82 249 247 218 268 249 250 262 172 241 240 274 226 163 277 324 280 172 191 200 191 198 183 157 144 152 150 161 144 139 133 139 141 138 135 129 127 126 122 120 115 109 107 120 120 115
42 55 61 46 259 259 240 254 252 176 191 220 231 218 252 1 340 345 333 257 171 193 217 164 200 243 167 152 163 162 151 151 140 133 144 148 140 133 129 124 120 120 116 111 107 105 112 118 115
45 93 55 291 252 276 293 259 144 190 227 266 233 206 92 82 352 349 1 10 139 191 194 86 278 222 191 170 169 150 150 150 139 136 151 147 139 135 129 123 120 117 112 110 107 104 119 118 117
115 88 206 248 271 307 270 107 194 196 212 228 164 214 183 26 303 79 67 49 82 142 121 113 140 313 119 184 170 147 155 160 140 138 146 144 140 136 127 123 123 118 114 112 110 104 114 123 126
109 93 125 247 256 277 284 250 112 174 228 29 116 234 181 197 175 124 90 85 80 143 126 134 114 52 21 286 190 164 158 179 132 137 142 141 142 131 128 126 122 117 113 112 106 101 110 129 124
128 70 241 250 220 261 296 267 191 83 117 240 226 175 161 174 174 113 101 94 89 130 167 122 120 95 2 259 216 208 151 158 124 122 128 134 141 129 126 129 122 116 108 101 100 96 100 116 121
108 137 235 215 210 262 271 234 183 148 205 255 253 197 203 181 155 125 121 129 123 128 115 122 132 127 275 331 138 125 128 165 120 127 136 131 142 133 131 126 118 113 106 96 94 93 97 108 110
175 205 211 277 249 238 259 230 205 175 219 225 224 184 174 153 141 118 110 105 110 119 131 149 138 139 107 50 67 96 128 127 135 119 127 128 132 132 128 125 116 118 100 92 83 100 93 96 124
146 247 230 275 284 276 243 191 243 208 236 218 223 106 102 153 172 148 130 129 119 136 137 145 139 136 116 120 125 125 160 132 132 125 121 128 124 111 129 123 125 116 120 107 103 86 103 102 111
191 275 298 262 277 238 278 234 223 223 245 327 57 109 145 151 165 110 106 111 119 129 132 138 139 141 134 132 138 152 161 136 133 142 135 150 144 142 132 132 123 133 115 134 104 112 113 111 106
211 241 268 283 269 243 161 240 317 237 190 289 255 84 119 140 149 123 117 134 136 120 112 129 144 143 143 146 149 157 168 156 146 137 146 149 146 150 152 131 127 122 143 123 123 141 127 125 123
245 316 317 264 260 253 161 276 245 252 142 239 276 123 165 142 124 110 134 149 136 125 123 131 135 143 144 158 156 163 166 148 140 154 147 142 155 147 160 124 134 165 118 116 111 105 101 116 117
334 88 355 298 4 262 134 267 243 155 159 220 198 180 171 145 113 120 138 147 113 123 127 124 133 136 136 143 148 145 154 149 155 147 147 149 156 148 149 130 167 154 135 135 129 142 128 133 145
357 239 250 310 171 270 192 267 279 163 188 191 214 187 181 141 124 128 137 149 131 126 133 118 117 119 116 98 91 109 123 141 146 134 155 156 157 158 151 158 165 159 153 144 146 131 132 155 159
197 214 256 250 290 89 270 266 272 203 197 186 200 233 196 200 151 150 137 140 134 120 132 128 122 110 81 82 75 87 98 106 123 138 161 157 155 158 153 148 164 161 137 136 153 146 122 151 170
148 276 281 278 277 216 259 257 237 197 218 197 188 195 243 222 150 162 146 140 157 147 141 146 139 145 141 106 146 157 157 111 92 149 151 153 172 168 127 171 172 174 167 180 168 131 166 154 146
225 244 266 287 272 155 268 253 283 189 219 214 185 189 193 203 182 177 164 167 178 169 154 151 152 156 161 178 208 178 165 131 158 162 177 203 147 120 174 180 192 175 153 157 160 161 148 169 181
232 219 253 230 306 243 253 314 257 266 278 188 199 191 210 190 179 191 186 196 185 183 171 165 160 164 172 186 165 82 46 23 214 170 123 234 169 199 182 187 182 176 169 183 184 183 174 181 199
242 208 246 263 279 244 115 268 284 234 222 210 223 195 194 196 189 188 197 191 193 187 179 174 170 172 178 183 184 171 197 211 212 204 166 183 186 199 198 192 190 184 185 178 195 196 190 163 178
232 203 224 253 271 162 301 324 268 141 233 227 218 219 203 197 189 193 196 195 192 186 186 180 175 180 189 186 191 185 197 214 237 228 243 244 218 199 189 192 191 196 191 200 193 183 197 196 164
229 291 269 39 171 266 211 172 274 192 212 226 213 213 208 192 189 190 191 184 187 181 183 181 183 192 197 197 199 194 200 203 209 225 227 243 241 237 216 204 208 210 206 205 201 202 197 203 190
153 131 310 302 360 242 224 165 239 278 232 214 197 207 206 194 183 184 185 188 192 186 185 184 190 199 199 203 205 206 206 206 214 218 217 222 232 231 227 201 210 217 217 208 189 197 202 195 195
176 168 172 214 190 252 255 240 252 247 280 214 201 204 191 188 193 197 195 193 196 195 192 192 197 203 200 203 207 209 216 218 223 224 222 224 221 221 207 210 217 220 207 201 198 192 181 161 164
212 186 204 154 26 107 229 289 310 290 302 190 198 162 196 198 196 202 197 197 196 198 199 199 202 206 207 208 209 211 215 223 227 231 229 224 224 223 212 215 217 198 173 171 182 191 192 168 176
203 167 107 354 187 225 249 245 229 296 248 142 173 200 208 202 204 204 199 201 203 203 200 198 205 211 210 213 217 222 222 225 228 228 223 219 215 215 220 240 161 162 173 161 176 190 183 169 170
164 211 229 151 149 186 207 255 211 233 224 209 202 207 200 200 201 203 204 203 205 202 199 202 207 209 211 214 223 226 227 225 223 225 223 186 175 169 155 171 176 198 191 184 178 186 182 166 151
216 209 178 178 209 226 189 236 239 227 246 215 222 206 204 204 203 206 203 202 196 204 197 205 207 208 207 210 219 217 223 221 224 226 207 199 193 177 180 189 206 210 186 183 180 174 165 159 166